Weather in Syrdar'ja

Uzbekistan     40°50′19″N   68°39′51″E
temp.,
°C
wind,
m/s
gust,
m/s
humid.,
%
clouds,
%
prec.,
mm/h
press.,
hPa
HPBL,
m
22 may, sun
sun2223:00+22nnw9144292 0.0 10091001
02:00+19wnw7962100 0.0 1012974
05:00+14nw71087100 2.0 1014807
08:00+14nnw3586100 10.2 1018536
11:00+16nw3456100 12.8 10181299
14:00+19wnw3442100 0.0 10181765
17:00+19nw2335100 0.0 10181590
20:00+16s114479 0.0 101811
23 may, mon
mon2323:00+15e11565 0.0 101815
02:00+14ssw1164100 0.0 101610
05:00+13e226850 0.0 101514
08:00+17wsw115414 0.0 1015344
11:00+21nnw11468 0.0 10131180
14:00+24n223674 0.0 10111678
17:00+24nne22330 0.0 10091560
20:00+20n33440 0.0 100942
24 may, tue
tue2423:00+19nne33440 0.0 100831
02:00+17ne22480 0.0 100722
05:00+16ne22560 0.0 100611
08:00+21ene33480 0.0 1006278
11:00+27ene12330 0.0 10051030
14:00+30ene12260 0.0 10041443
17:00+31ne22240 0.0 10031410
20:00+26n22350 0.0 100312
25 may, wed
wed2523:00+23nne46510 0.0 100479
02:00+22ene22585 0.0 100513
05:00+21ne22575 0.0 100611
08:00+26ese124062 0.0 1007202
11:00+32ssw01294 0.0 1007921
14:00+35nnw11222 0.0 10061564
17:00+36n22190 0.0 10061794
20:00+29nnw22330 0.0 100715
26 may, thu
thu2623:00+27nne34360 0.0 100744
02:00+25nne33410 0.0 100734
05:00+23nne22440 0.0 100811
08:00+27wnw453870 0.0 1010339
11:00+32nw342541 0.0 10101185
14:00+34nnw55202 0.0 10091839
17:00+34nw6520100 0.0 10092244
20:00+27nw4934100 0.0 1010196